Theta_e
316 316 316 316 317 316 317 317 317 317 318 319 319 318 317 318 318 319 319 319 318 316 315 313 310 308 305 302 300 297 296 296 297 297 297 297 296 296 296 296 295 295 295 295 295 294 294 294 294 294 294 294 294 293 291 290 289 289 289 287 284 283 284 285 286 287 287 286 286 286 286 286 287 287 287 287 288 288 288 289 289 289 289 289 289
317 317 317 317 317 317 317 318 318 318 318 319 319 319 318 318 319 319 319 319 318 317 315 314 311 308 305 303 300 298 296 295 296 297 297 297 297 296 296 296 296 295 295 295 295 295 294 294 294 294 293 293 293 292 290 290 289 289 289 287 284 283 284 285 285 286 287 286 286 286 286 286 286 287 287 287 287 287 288 288 288 288 288 288 288
317 317 317 317 318 318 318 318 318 318 318 319 319 320 319 319 319 319 319 319 318 317 316 315 312 308 305 303 300 298 297 296 296 297 297 297 296 296 296 296 296 296 295 295 295 295 294 294 294 294 293 292 291 291 291 290 290 290 288 285 284 283 284 286 286 286 286 286 286 286 286 286 286 286 286 286 287 287 287 287 287 287 287 288 288
318 317 318 318 318 318 318 319 319 319 320 320 320 320 320 320 320 320 319 319 318 317 316 314 311 308 305 303 301 299 298 297 296 296 296 296 296 296 296 296 296 296 295 295 295 295 294 294 294 293 292 291 291 292 292 291 291 290 287 284 284 284 284 285 286 286 286 286 286 286 286 286 286 286 286 286 286 286 287 287 287 287 287 287 288
318 318 318 318 318 318 319 319 319 320 320 321 321 321 321 320 320 320 320 319 319 318 316 314 311 308 306 305 302 300 299 298 297 296 296 297 297 296 296 295 296 296 296 295 295 295 294 294 294 292 291 291 292 293 293 292 292 289 286 284 285 285 285 285 286 286 286 286 286 286 286 286 286 285 285 286 286 286 286 286 286 287 287 287 288
319 319 319 319 319 320 320 320 320 320 321 321 321 321 321 321 321 321 321 320 319 318 317 314 312 309 307 305 303 301 300 299 298 297 297 297 297 297 296 296 296 296 295 295 295 295 294 294 294 292 290 291 293 293 293 293 292 288 285 285 285 285 285 286 286 286 286 286 286 286 286 286 286 285 285 285 286 286 286 286 286 286 287 287 288
319 320 320 320 320 321 321 321 321 321 321 321 322 322 321 321 321 321 321 321 320 319 317 315 313 311 308 306 303 301 300 300 299 298 298 297 297 297 297 297 296 296 295 295 295 295 294 294 293 292 291 292 293 294 294 294 292 287 285 285 286 285 286 286 286 286 286 286 286 286 286 286 286 285 285 285 285 286 286 286 287 287 286 287 287
320 320 320 320 321 321 321 322 322 322 322 322 322 322 322 322 322 321 321 321 320 319 318 316 313 311 308 305 304 301 300 300 299 299 298 297 297 297 297 297 297 296 296 295 295 295 294 294 294 294 293 293 294 294 294 294 291 287 285 286 286 286 286 287 287 287 287 286 287 287 286 286 286 285 285 285 286 286 286 286 287 287 287 287 287
319 320 320 320 321 321 321 322 322 322 322 322 322 322 322 322 322 322 321 321 320 319 318 316 313 310 308 306 303 301 300 300 300 299 298 296 295 296 296 297 297 296 296 295 295 295 294 294 294 294 294 295 296 295 295 294 290 287 286 287 287 287 287 287 287 287 287 287 287 287 287 286 286 286 285 285 285 286 286 286 287 287 286 287 287
320 320 320 321 320 321 321 321 322 322 322 322 322 322 322 322 322 322 321 321 319 318 317 315 313 311 308 306 304 302 301 300 300 300 298 294 292 292 293 294 295 296 296 295 295 295 295 294 294 295 294 295 296 296 295 293 290 287 287 287 287 287 287 287 287 287 287 287 287 287 287 287 286 286 285 285 285 285 286 286 287 287 286 287 287
320 320 320 320 320 321 321 321 321 321 322 322 322 322 322 322 322 322 321 320 319 318 317 315 314 312 309 307 305 303 302 301 300 300 296 292 290 290 290 290 292 294 295 296 295 295 295 295 295 295 295 295 295 294 294 293 290 287 288 288 288 288 288 288 288 287 287 287 287 287 287 287 286 286 285 285 285 285 286 286 286 286 287 287 288
320 320 320 320 320 320 320 321 321 321 321 321 322 322 322 322 322 321 321 321 319 317 317 316 315 313 309 307 305 304 302 301 300 299 295 291 290 290 289 289 289 291 293 294 295 295 295 295 295 295 295 295 296 295 294 293 290 288 288 289 288 289 289 288 288 288 287 287 287 287 287 286 286 286 285 285 285 285 285 286 286 286 287 287 288
319 319 320 320 320 321 320 321 321 321 321 321 321 322 322 322 323 322 321 321 319 317 317 316 315 313 310 308 306 305 303 301 300 299 296 292 290 290 290 289 289 289 289 291 293 295 296 296 295 295 295 296 297 296 295 294 291 288 288 289 289 289 289 289 289 288 288 288 287 287 286 286 286 285 284 285 285 285 285 286 286 286 287 288 287
319 319 320 320 320 321 320 321 321 321 321 322 321 322 322 322 322 322 321 320 319 317 317 316 314 313 310 308 307 305 304 302 300 299 298 294 291 289 289 289 289 289 288 289 290 292 294 294 295 296 296 296 296 296 296 294 291 288 288 289 289 289 290 290 289 288 287 287 287 287 286 285 285 284 284 284 284 285 285 285 286 287 287 287 287
319 319 320 319 320 320 321 321 321 321 321 322 322 322 322 322 322 322 321 320 319 318 317 316 314 312 311 309 307 305 304 302 300 300 299 297 292 290 289 289 289 289 289 289 290 291 292 294 295 296 296 295 295 295 295 294 290 288 289 289 289 289 290 290 289 288 287 287 287 286 286 285 284 284 283 283 284 285 286 286 286 287 286 287 287
320 320 320 320 320 320 321 321 321 322 321 322 322 322 322 322 322 322 320 318 317 317 317 315 314 314 312 309 307 306 304 302 301 300 300 298 294 290 289 289 289 289 289 289 291 293 294 296 296 295 294 293 293 294 294 292 290 288 288 289 289 289 290 290 289 288 288 287 287 286 286 285 284 284 283 284 285 286 286 287 287 286 286 286 288
320 320 320 321 320 320 321 321 321 321 321 321 322 322 322 322 322 321 319 317 318 319 317 315 315 314 313 310 308 307 305 303 301 300 300 299 296 292 289 289 289 289 289 289 290 292 295 296 296 294 293 293 293 294 293 291 290 289 289 288 289 289 290 290 290 289 288 288 287 287 286 285 284 284 283 284 286 287 286 286 286 285 286 287 288
320 320 321 321 321 321 321 321 321 321 321 322 322 322 322 322 321 320 319 318 319 319 316 314 314 314 312 311 310 308 306 304 302 301 300 300 297 294 290 289 289 289 289 289 289 291 293 295 296 295 293 292 293 294 293 291 290 289 289 289 289 289 290 291 290 289 288 288 287 287 286 285 285 284 283 284 286 287 286 286 286 285 286 287 287
321 322 322 322 322 322 321 322 321 321 321 322 322 322 322 322 321 319 318 317 317 317 316 314 315 314 312 311 309 308 307 305 302 301 300 300 298 296 292 290 289 289 289 289 289 290 291 293 294 294 291 291 292 294 293 292 291 290 290 289 289 289 290 291 290 289 288 288 287 287 286 286 285 284 283 284 286 287 287 287 287 285 285 286 287
323 323 323 323 323 323 323 322 321 321 321 322 322 322 322 321 320 319 316 314 314 317 317 316 315 315 313 311 309 308 307 305 303 301 300 300 299 297 295 293 291 290 290 289 289 289 289 290 291 290 289 289 291 293 293 292 291 291 290 290 289 289 290 291 290 289 288 288 287 287 286 286 285 284 283 284 285 287 287 288 288 286 285 285 286
324 324 323 322 323 323 322 322 322 322 322 322 322 322 321 321 319 317 315 313 314 316 317 315 314 314 313 311 310 308 307 305 303 301 301 300 299 298 297 296 294 294 293 291 290 289 289 289 289 288 288 288 290 292 293 292 292 291 290 290 289 289 290 290 290 288 288 288 287 287 286 285 285 284 283 284 285 286 287 288 288 287 286 285 286
324 324 323 322 322 322 322 322 322 322 322 322 322 322 321 320 318 316 314 314 314 315 315 313 313 313 312 310 309 308 307 305 304 302 301 300 300 299 298 297 296 296 296 294 292 290 289 289 289 288 288 288 289 290 291 292 292 291 290 289 289 289 290 291 289 288 288 288 287 286 286 285 285 284 283 283 285 286 287 288 288 288 287 286 286
324 323 323 322 322 322 322 322 322 322 322 322 322 322 320 319 317 314 314 315 315 314 313 312 312 311 309 308 308 308 306 305 304 303 301 300 300 299 299 298 297 298 297 296 294 293 291 289 289 288 288 288 288 288 289 290 291 290 290 289 289 290 291 291 289 288 288 288 287 286 286 285 285 284 283 283 284 286 287 288 288 288 288 288 288
323 322 322 322 322 322 322 321 321 321 322 322 321 321 319 317 315 313 314 316 315 313 312 311 310 309 308 307 308 308 307 305 304 303 302 301 300 300 299 298 298 298 298 297 296 295 293 291 289 288 288 288 289 289 289 289 290 290 289 289 289 290 291 290 289 288 288 288 287 286 286 285 285 283 283 283 284 286 287 288 288 288 288 289 289
322 322 322 322 322 322 321 321 321 321 321 321 321 320 318 316 314 313 315 316 314 312 311 310 309 308 307 307 309 309 307 306 305 304 302 301 301 300 300 299 298 298 299 298 298 297 295 293 291 289 288 288 290 290 290 290 290 290 289 288 289 291 292 290 289 288 288 288 287 287 286 285 285 283 283 283 284 285 287 288 288 289 289 289 291
323 323 323 323 323 323 322 322 322 321 321 321 320 320 319 317 315 315 315 315 313 312 311 310 308 307 307 308 310 309 307 306 306 305 303 302 301 301 300 300 299 299 299 299 299 298 297 295 293 291 288 288 290 291 292 292 291 291 290 289 289 291 291 290 289 289 288 288 288 287 286 286 285 283 283 283 284 285 287 288 288 288 288 289 290
325 325 325 325 324 324 323 323 322 321 321 320 319 319 318 317 316 315 315 314 312 311 310 309 308 307 308 310 310 307 306 306 306 306 304 303 302 302 301 300 300 299 299 300 300 299 298 297 296 294 291 289 290 291 292 293 292 292 291 290 289 290 291 290 289 289 288 288 288 287 286 286 285 283 283 283 283 285 287 288 288 288 288 287 288
326 326 325 325 324 324 324 323 322 321 320 319 319 318 317 316 316 316 316 316 315 314 312 311 311 311 311 311 309 306 305 306 308 308 307 305 304 303 302 301 301 300 300 300 300 300 299 298 297 296 294 292 291 291 293 293 293 293 292 291 289 290 291 290 289 289 289 288 287 287 286 286 285 283 283 283 283 284 287 288 288 288 287 287 287
325 325 325 325 324 324 323 322 322 320 320 319 318 317 317 317 317 317 317 318 318 318 317 316 316 316 315 313 310 307 307 309 310 309 307 306 305 304 303 302 302 301 301 300 300 299 298 298 297 297 296 295 293 292 293 294 294 294 294 292 290 289 290 290 289 289 289 288 287 287 286 286 285 283 283 284 283 284 286 287 288 288 287 287 287
325 325 325 324 324 324 323 322 321 320 319 318 318 317 317 317 317 317 317 317 317 317 317 317 316 315 313 312 311 310 309 310 310 308 307 306 305 304 303 302 302 302 301 300 299 298 298 297 297 297 296 295 294 293 294 294 294 295 295 294 291 289 289 290 290 289 289 288 287 287 287 286 285 283 283 284 283 284 286 287 287 287 287 286 287
324 324 323 323 323 322 322 321 321 320 319 319 318 317 317 316 316 316 316 315 315 315 315 314 313 312 310 310 310 309 309 309 309 308 308 307 306 304 303 302 302 302 301 300 298 298 297 296 296 296 295 294 293 294 294 293 294 295 295 295 293 290 289 290 291 290 289 288 288 287 287 286 285 283 283 284 283 283 285 287 287 287 287 286 286
322 322 322 322 322 321 320 320 319 319 318 317 317 316 316 315 315 315 315 314 314 314 313 312 312 311 310 309 309 309 310 310 309 308 307 306 305 304 303 303 302 301 300 299 298 298 297 296 295 295 294 294 294 294 293 293 294 295 295 295 294 291 289 290 290 290 289 288 288 287 287 286 285 283 283 284 283 283 285 286 287 287 287 286 286
322 322 321 321 321 321 320 320 319 318 318 317 316 316 315 314 314 314 314 314 314 313 313 313 312 312 311 311 310 311 310 310 309 308 306 305 304 303 303 302 302 300 299 298 298 298 297 296 295 295 295 295 296 295 294 293 294 295 294 294 294 293 291 290 290 290 289 289 288 287 287 286 285 284 283 284 283 283 284 286 287 287 287 286 286
321 320 320 320 320 319 319 318 318 317 317 316 316 315 315 314 313 312 312 312 312 312 312 312 312 312 312 312 311 310 310 310 309 308 307 306 305 303 302 302 301 300 299 298 298 298 297 296 296 296 296 296 297 296 295 295 295 294 294 294 294 294 292 290 290 290 290 289 288 287 287 287 286 284 283 284 284 283 284 285 286 286 286 286 286
319 318 318 318 318 318 318 317 317 316 316 315 315 314 314 314 313 312 312 312 312 312 312 313 312 312 312 311 311 310 311 311 310 309 308 308 306 304 302 300 300 300 299 299 299 299 298 298 297 297 297 297 297 297 296 296 296 295 295 294 294 293 292 290 289 290 290 289 289 288 287 287 286 285 283 283 284 283 284 285 285 286 286 286 286
318 318 318 318 318 318 318 317 317 316 316 315 315 314 314 314 313 313 312 312 311 312 313 313 313 312 311 311 312 312 312 311 311 310 310 310 308 305 302 301 301 301 300 300 300 299 299 299 299 298 298 298 298 297 297 296 296 296 296 294 293 292 291 290 289 289 290 290 289 288 287 287 286 285 284 283 284 283 283 284 285 286 286 286 286
311 312 313 315 316 317 317 317 317 316 315 314 314 314 313 313 312 312 311 311 311 311 311 311 311 311 310 311 311 312 310 310 310 311 310 310 308 306 303 302 302 301 301 302 301 300 300 300 300 299 299 299 298 298 297 296 296 296 296 295 293 292 291 290 289 289 290 290 289 288 288 287 286 285 284 283 284 283 283 284 285 285 286 287 287
303 305 307 309 311 313 314 316 316 316 315 314 313 313 312 311 311 311 310 310 310 310 310 309 309 309 309 309 309 309 309 308 309 310 310 309 307 306 304 303 302 302 302 303 303 301 301 301 300 300 299 299 298 298 298 297 296 296 295 294 293 292 291 290 288 288 289 290 289 289 288 287 287 286 284 283 284 283 283 284 285 285 286 287 287
303 304 306 307 308 309 310 312 313 313 314 313 313 312 312 311 311 310 310 309 309 309 309 309 308 309 309 309 308 308 308 308 308 308 308 307 306 305 304 303 303 303 303 303 303 301 301 301 301 300 299 299 298 298 297 297 296 296 295 294 292 292 291 290 288 288 289 290 290 289 288 287 287 286 285 283 283 284 283 284 284 285 285 286 287
305 306 306 307 308 308 308 309 309 310 310 311 311 311 311 311 310 310 310 309 308 308 308 308 308 308 309 308 307 307 307 307 308 308 307 307 306 305 304 303 303 303 304 303 303 302 301 301 301 300 299 298 298 297 297 296 295 295 295 294 293 292 292 291 289 287 288 290 290 289 288 287 287 286 285 284 283 284 283 283 284 285 285 285 287
305 306 306 306 306 306 306 306 307 307 307 308 308 308 309 309 309 309 309 308 308 308 307 307 307 307 308 307 307 307 306 306 307 307 306 306 306 305 305 304 304 304 303 303 303 302 301 301 300 300 299 299 298 297 297 296 295 294 294 294 293 292 292 292 290 287 287 289 290 290 289 288 287 287 286 284 283 284 283 283 284 285 285 285 287
304 304 304 304 304 304 304 304 305 305 305 305 305 305 305 306 306 307 307 306 306 306 305 305 306 306 307 307 307 307 306 306 306 306 306 306 305 305 304 304 304 303 303 303 302 302 301 301 300 300 299 299 298 298 297 296 295 294 294 294 294 293 293 293 291 288 287 289 290 290 289 288 287 287 286 284 283 283 283 283 284 284 285 285 286
302 302 302 302 302 302 302 302 303 302 302 302 302 302 302 302 303 304 304 304 303 303 303 304 305 305 306 307 307 307 306 305 305 305 304 304 304 304 304 303 303 303 302 302 302 301 301 300 300 300 300 299 299 298 297 296 295 294 294 294 294 294 294 294 292 289 288 289 290 290 290 289 287 287 286 285 283 283 283 283 284 284 284 285 286
300 300 300 300 300 300 300 301 301 301 301 300 300 300 299 299 299 300 301 302 302 301 302 303 303 304 305 306 306 306 306 306 305 305 304 304 304 304 304 303 303 303 303 302 302 301 300 300 300 300 300 299 299 298 297 296 295 294 294 294 294 294 294 295 294 290 288 289 290 290 290 289 288 287 286 285 284 283 283 283 284 284 284 285 286
299 299 300 300 300 299 299 299 300 300 300 300 299 299 299 298 297 297 298 299 300 300 300 301 301 302 303 304 305 306 306 305 305 304 303 303 303 304 304 304 304 304 303 303 302 301 300 300 299 299 300 299 299 298 297 296 295 295 294 294 294 294 295 296 295 292 289 289 289 290 290 290 288 287 287 285 284 283 283 283 283 284 284 284 285
298 298 299 300 300 300 300 299 299 299 300 300 300 299 299 298 297 296 296 297 298 298 299 300 300 301 302 303 305 305 304 304 303 302 300 299 299 301 302 304 305 305 305 304 303 302 301 301 300 299 299 299 299 298 297 296 296 295 295 294 294 295 296 296 294 292 289 289 289 290 290 290 289 288 287 286 284 283 283 283 283 284 284 284 285
297 297 298 299 299 300 300 300 300 300 300 300 300 300 299 299 298 297 296 296 296 296 297 298 299 300 300 301 303 303 303 303 302 300 296 295 295 296 297 300 302 304 305 305 304 303 302 301 300 299 299 299 299 298 298 297 296 296 295 295 295 295 296 295 293 291 289 288 288 289 290 291 290 289 287 286 284 283 283 283 283 284 284 284 284
297 297 297 297 298 298 299 299 300 300 300 300 300 300 300 300 299 298 297 297 296 296 296 297 298 299 299 299 300 300 301 301 301 299 295 294 295 295 294 295 297 299 302 305 305 304 303 301 300 300 299 299 299 299 298 297 297 296 296 295 295 296 296 295 293 291 289 288 288 289 289 290 290 289 287 286 284 283 283 283 283 284 284 284 284
297 297 297 297 297 298 298 298 299 299 299 299 300 300 300 300 299 299 298 298 297 297 297 297 297 298 298 298 298 298 298 299 300 299 295 295 296 297 295 294 294 294 296 299 303 304 304 302 301 300 300 300 300 299 298 298 297 297 297 296 296 296 296 295 293 291 290 289 288 288 289 290 290 289 288 286 285 284 283 283 283 284 284 284 284
297 297 297 297 297 297 297 298 298 298 298 298 299 299 299 299 300 299 299 299 298 297 297 297 297 298 298 298 298 297 297 297 298 298 297 296 296 297 297 296 296 295 294 294 296 300 303 304 303 302 301 300 300 299 299 298 298 297 297 297 296 296 296 295 293 292 290 289 288 288 289 289 290 289 288 286 285 284 283 284 283 283 284 284 284
297 296 296 296 296 296 297 297 297 297 297 297 297 298 298 298 299 299 299 299 299 298 298 297 297 297 298 298 298 298 298 297 297 297 297 297 297 297 297 297 297 297 295 293 293 294 298 301 303 303 302 301 300 300 299 299 299 298 297 297 296 296 296 295 294 292 291 289 288 288 288 289 289 289 288 287 285 283 283 284 283 283 284 284 284
Wind_Speed
21 20 19 18 17 16 15 14 13 13 12 11 11 12 12 13 13 14 14 14 14 13 12 9 8 6 5 4 2 1 2 3 3 4 3 3 2 2 2 1 1 0 2 2 3 3 3 4 4 4 6 7 8 9 9 10 11 12 13 14 12 8 7 7 7 13 22 22 22 25 24 24 25 24 25 27 26 26 27 26 25 26 26 27 28
22 22 20 19 19 17 16 15 14 14 14 13 12 13 14 15 15 15 15 15 15 14 13 11 10 9 7 5 4 2 2 4 5 5 4 4 3 3 3 2 2 1 1 1 1 1 2 3 3 4 6 7 7 8 9 10 11 13 14 14 14 11 7 8 8 10 18 25 25 25 25 24 25 25 25 27 29 30 30 29 28 28 29 30 30
23 23 22 21 21 19 17 16 15 15 15 15 15 15 16 16 17 17 17 17 17 16 14 12 11 10 9 7 5 4 3 4 5 5 5 5 5 5 5 4 4 3 3 3 2 2 2 3 3 5 5 5 5 7 8 10 12 14 16 15 14 13 9 8 9 9 15 23 25 24 25 26 25 25 26 27 28 30 31 31 31 30 30 30 30
24 24 23 23 22 21 20 18 17 18 18 18 18 17 17 18 18 18 18 18 18 17 15 14 13 12 11 9 7 6 5 5 5 6 6 6 6 6 6 6 5 4 4 4 4 3 4 4 4 6 6 4 5 7 8 10 13 14 16 15 14 15 12 8 9 10 13 19 23 24 25 25 26 26 26 28 29 29 29 31 33 33 32 31 31
26 25 24 24 23 22 22 21 20 21 21 20 20 19 19 19 19 19 19 19 19 18 17 16 15 14 12 10 9 8 6 6 6 7 7 7 7 6 6 7 7 6 6 5 5 5 5 5 6 7 6 5 5 7 9 10 13 15 16 15 14 14 12 9 9 12 14 18 23 24 24 25 27 27 27 29 32 32 31 31 34 35 33 33 33
28 27 26 25 25 24 23 23 23 23 23 23 22 21 20 20 19 20 20 20 20 20 19 18 17 15 14 12 10 10 8 8 7 8 8 8 8 8 8 8 8 7 7 6 6 6 6 6 7 7 6 7 7 8 9 11 13 16 15 14 14 12 11 10 11 14 17 19 21 23 24 25 27 28 28 28 30 33 34 32 33 36 35 33 34
29 28 28 27 27 26 25 24 24 23 23 23 23 23 22 21 21 21 21 21 22 21 21 20 19 17 15 14 13 11 10 9 9 9 10 10 10 10 10 9 9 8 8 8 7 6 6 6 7 7 7 8 8 9 10 11 13 15 14 13 12 11 10 12 14 16 18 20 21 23 24 24 26 28 28 28 27 28 29 29 31 38 41 35 32
30 30 29 29 29 28 27 25 25 24 24 24 24 24 23 23 23 23 23 22 23 23 22 21 20 18 17 16 14 13 12 12 11 11 11 11 11 11 11 11 11 10 10 9 8 7 7 6 5 6 7 8 9 10 10 11 13 14 12 11 10 10 11 13 15 17 19 21 22 24 24 25 26 27 29 29 27 25 26 26 26 32 40 40 36
31 31 30 31 30 29 28 27 26 26 26 26 26 26 25 25 24 24 24 24 23 22 21 21 21 20 19 17 16 16 15 13 12 12 12 12 12 12 12 12 13 12 12 11 10 9 8 7 7 7 8 9 10 12 11 11 13 13 10 9 9 10 12 13 15 18 19 20 22 24 24 24 26 27 28 28 26 27 30 29 24 26 31 36 39
31 31 31 32 31 29 29 28 27 27 27 28 28 27 27 26 25 24 24 24 24 23 22 22 22 21 20 19 18 18 17 15 13 13 12 12 12 12 13 13 13 14 13 13 12 12 10 9 9 9 10 10 12 13 12 12 12 11 9 8 9 10 12 14 15 17 18 19 20 22 22 23 26 26 26 28 28 29 31 28 25 26 24 25 33
32 32 33 33 31 30 30 30 30 30 29 30 29 29 28 26 25 25 25 25 26 25 24 24 23 22 21 20 19 19 18 16 14 13 13 12 12 12 12 13 13 14 15 14 14 13 13 12 12 12 13 13 14 15 14 12 11 10 7 7 10 11 12 13 15 16 17 18 20 21 21 24 28 27 26 29 29 29 30 29 25 25 22 17 20
32 33 34 33 32 32 32 31 31 31 31 31 30 29 28 27 26 26 26 27 27 27 26 26 25 23 23 22 21 20 18 16 14 13 13 13 12 12 12 12 13 14 15 15 15 15 15 14 14 14 15 15 16 16 15 13 12 10 7 7 9 11 13 14 15 15 16 16 19 21 21 24 27 27 27 29 29 30 31 28 24 22 22 19 16
33 34 34 34 33 33 33 32 32 32 32 31 30 29 29 28 29 29 28 29 29 28 28 28 26 25 24 24 22 21 19 18 16 14 13 13 13 13 12 12 12 13 14 15 16 16 16 16 16 16 16 16 17 17 16 14 12 10 8 8 9 11 14 14 14 15 15 16 17 20 22 23 25 26 27 27 29 31 29 26 25 24 22 20 20
33 34 35 35 34 34 33 32 33 34 33 31 30 30 30 31 31 30 29 30 30 30 30 29 28 27 26 25 23 22 20 19 17 14 13 13 13 13 13 13 13 13 14 14 15 16 17 17 17 17 16 16 17 17 15 13 12 11 10 10 12 13 15 15 14 13 15 15 16 20 22 22 23 25 26 26 26 28 28 28 28 27 27 28 27
33 35 35 35 35 34 33 33 34 34 33 31 31 31 32 33 32 32 32 32 32 31 30 30 29 27 26 25 24 23 21 20 18 16 14 13 14 14 14 14 14 14 14 14 15 16 16 16 17 17 16 15 16 15 14 13 13 13 13 13 15 16 17 16 14 13 14 14 15 19 21 22 22 23 25 25 24 23 24 25 27 28 30 33 30
33 34 34 35 35 34 34 34 34 34 32 31 32 33 34 35 35 34 32 31 30 30 31 31 29 28 26 26 25 24 22 20 19 17 15 14 14 15 15 15 15 15 14 14 15 15 16 16 16 16 16 15 15 14 12 12 14 14 15 15 17 18 19 17 14 13 14 15 15 18 21 22 22 23 24 23 20 21 22 24 27 27 24 25 23
32 33 34 35 36 35 35 34 34 33 32 32 33 35 36 36 36 33 31 31 31 32 33 32 30 29 27 26 26 24 23 21 20 18 16 15 15 16 16 16 15 15 15 15 15 16 17 17 17 17 17 16 15 12 11 12 14 15 16 17 18 20 21 19 16 15 15 15 17 19 21 23 24 24 24 21 18 20 22 23 27 26 19 15 16
33 33 35 36 37 35 34 33 33 33 33 34 36 37 38 37 36 33 33 34 34 33 32 30 29 29 28 26 25 24 23 22 21 20 18 16 16 16 16 16 16 16 15 15 15 16 17 17 17 18 18 16 14 12 12 13 15 16 16 18 20 22 22 20 19 20 19 19 19 21 22 24 25 25 25 22 18 18 20 22 25 25 19 14 15
34 35 37 37 35 34 33 34 35 35 35 36 38 39 38 36 34 33 32 33 32 30 30 30 30 30 28 26 25 24 23 22 21 21 19 17 17 17 16 17 17 17 16 15 15 16 16 17 17 18 18 15 14 13 13 15 16 17 17 18 21 22 21 19 19 20 21 21 21 22 24 25 25 25 25 22 19 18 18 21 23 23 21 18 18
36 36 37 35 33 34 35 36 36 36 37 39 38 37 35 33 32 30 29 28 28 28 30 30 31 31 29 27 26 25 24 23 22 22 20 19 18 17 17 18 19 17 16 15 15 16 16 16 17 17 17 15 14 14 15 16 17 17 17 18 21 22 21 19 18 19 20 21 21 22 24 25 25 25 25 24 22 20 19 20 21 22 22 21 20
36 35 35 34 33 35 36 36 36 37 38 37 35 34 33 31 30 28 26 25 25 28 31 31 30 30 28 27 26 25 25 24 23 22 21 20 19 19 19 19 19 17 16 16 16 16 16 16 16 15 15 16 15 15 16 17 17 18 19 19 20 21 20 18 18 18 19 20 20 21 23 25 26 27 26 26 25 23 22 22 22 22 22 21 20
34 34 34 32 32 33 34 35 36 36 35 34 32 31 30 28 27 26 24 24 25 29 31 30 29 29 28 27 26 25 25 24 24 23 22 21 20 20 20 20 18 17 17 18 18 17 17 16 15 14 15 16 16 16 17 17 18 19 20 19 19 19 19 18 17 18 19 19 19 21 22 24 27 28 28 27 27 25 24 24 23 22 21 21 20
33 32 32 31 32 32 33 34 34 32 32 31 30 29 28 25 24 22 21 21 25 28 30 29 28 28 28 27 27 26 25 25 25 24 23 22 22 22 21 20 19 19 19 20 19 18 17 16 15 15 15 16 16 17 17 17 18 19 19 19 19 19 18 17 17 18 19 18 19 20 21 22 25 27 27 27 28 26 25 25 25 23 23 24 21
29 29 29 30 31 32 31 31 29 28 29 28 27 26 25 22 20 19 19 21 26 28 28 28 27 27 27 27 27 27 26 26 25 25 24 23 23 23 23 22 21 21 21 21 20 19 18 17 15 15 16 17 17 17 17 17 18 18 18 18 18 18 17 17 17 18 18 18 18 20 20 21 23 24 24 25 26 26 25 25 25 24 24 25 23
24 25 27 28 29 29 28 26 26 26 26 26 25 24 23 22 20 20 21 24 27 28 27 27 27 26 26 27 28 27 27 26 26 26 26 25 24 24 24 23 22 22 23 22 21 20 19 18 17 16 17 18 18 18 18 18 18 19 18 18 18 18 18 17 17 17 17 17 18 19 19 20 22 22 21 23 24 24 25 26 26 25 26 27 25
20 22 23 25 25 24 23 22 22 22 22 22 23 23 23 22 21 22 24 27 28 27 26 25 25 25 26 27 28 27 26 26 26 26 26 26 26 25 25 25 24 24 24 24 23 22 21 20 19 18 18 19 19 20 20 20 20 20 20 18 18 18 18 17 17 17 17 17 17 17 18 19 20 21 20 21 23 23 23 25 26 27 28 29 27
20 21 22 21 20 19 18 18 17 17 17 18 19 20 21 22 22 23 26 27 26 26 25 24 24 25 26 28 28 26 25 26 26 26 26 26 25 25 25 25 25 26 26 26 25 24 23 22 21 20 20 21 21 22 23 23 23 22 21 19 19 18 18 18 17 17 17 16 16 16 17 18 19 20 20 20 22 22 21 23 25 27 29 28 25
19 18 17 15 15 14 14 13 14 14 15 16 17 19 20 21 23 25 26 26 25 25 25 25 26 26 27 28 26 24 25 26 26 24 23 22 22 22 23 23 24 25 26 25 25 25 24 24 24 23 23 24 25 25 25 25 25 24 22 20 19 18 18 18 18 18 17 16 15 15 17 17 18 18 18 19 21 21 20 21 22 26 28 25 20
12 11 10 9 9 9 9 10 11 12 13 14 16 18 19 20 22 24 24 24 24 23 23 23 24 24 25 26 24 24 25 24 22 19 18 18 17 18 19 18 19 20 20 21 23 24 25 25 25 26 26 26 27 27 28 27 26 25 23 20 18 18 19 19 19 19 17 15 15 14 15 17 18 17 17 19 20 20 19 19 21 24 27 24 18
7 7 7 6 7 7 7 8 9 10 12 13 15 16 18 19 20 22 21 21 22 22 22 22 22 21 22 22 22 23 23 22 20 18 18 18 17 17 17 16 15 15 16 18 21 23 24 25 26 27 27 27 27 28 28 27 26 25 24 21 19 18 19 21 20 19 17 16 15 13 14 16 17 17 16 18 20 20 19 18 19 22 25 23 18
4 4 4 5 5 6 6 7 8 10 11 13 14 16 17 18 19 20 20 21 21 21 21 22 22 21 21 21 21 22 22 22 22 22 22 21 20 19 18 17 15 14 15 18 21 23 24 26 26 27 27 26 27 29 28 26 25 25 25 23 21 18 18 20 21 19 18 17 15 13 12 14 15 15 15 15 18 19 18 17 18 21 24 22 16
1 2 3 4 4 5 6 7 8 10 11 12 13 14 15 16 17 18 18 20 21 21 21 22 22 23 23 23 23 24 24 24 24 24 24 23 22 21 20 19 17 15 16 18 21 25 26 26 27 27 26 25 28 29 27 26 25 25 24 24 22 19 18 19 19 18 17 17 15 13 12 13 14 14 13 13 15 17 18 17 18 20 23 23 20
3 3 3 3 4 5 6 7 8 10 11 12 13 13 14 16 16 16 15 16 17 19 20 21 21 22 23 24 24 25 25 25 25 25 25 24 24 22 21 21 19 17 18 20 23 26 27 27 28 29 28 28 30 29 26 26 26 26 25 24 23 21 19 18 17 17 16 16 16 14 12 12 13 13 12 12 13 14 15 16 17 19 21 22 21
5 5 5 5 5 5 6 7 8 9 10 12 13 14 14 15 16 15 15 15 15 16 17 18 18 18 19 20 21 21 21 21 22 23 23 23 24 23 23 22 21 21 22 23 25 28 29 28 30 31 30 30 31 29 27 27 27 26 25 25 24 23 21 18 17 18 17 16 15 14 12 11 12 13 12 11 11 12 13 14 15 18 20 21 20
5 6 7 7 7 6 6 6 7 8 10 12 13 14 14 15 15 15 15 16 17 18 19 19 18 17 17 17 17 18 18 18 19 19 19 20 21 22 22 23 24 24 25 26 28 30 30 30 31 32 32 31 30 29 28 29 28 26 25 25 24 24 22 20 19 19 18 16 16 15 12 11 11 12 11 11 10 11 12 13 14 15 17 20 20
7 8 8 8 8 7 7 7 7 8 10 11 11 13 14 14 15 16 16 16 16 19 22 22 20 18 17 17 18 20 20 19 19 20 20 20 20 20 22 25 27 27 27 28 29 30 31 32 33 33 32 31 30 29 28 29 28 27 25 24 24 24 23 20 19 19 19 18 17 15 13 11 11 11 11 10 10 10 10 10 12 13 14 18 19
13 12 11 9 8 7 6 6 7 9 10 10 10 12 13 14 15 16 15 15 16 19 22 23 22 21 20 19 20 21 21 20 20 21 22 22 21 21 24 26 27 27 27 28 29 29 30 32 32 33 33 32 30 29 28 28 28 27 25 23 23 24 23 21 19 19 19 18 17 16 14 12 11 11 11 10 9 8 8 8 10 11 12 15 18
16 15 14 12 10 10 9 8 7 7 6 6 7 9 11 12 13 13 14 15 17 20 21 21 21 22 22 21 20 19 19 20 21 22 22 22 22 23 24 26 26 27 28 28 28 28 29 31 31 31 31 31 30 28 28 28 28 27 24 22 22 22 22 21 20 19 19 19 18 17 15 13 12 11 11 10 9 8 7 7 8 10 11 13 16
17 16 15 14 13 13 13 12 11 10 10 9 8 7 8 10 11 12 12 13 14 16 18 19 19 20 21 21 20 18 18 19 21 22 22 22 22 22 23 24 25 26 28 28 27 27 28 30 30 30 30 30 29 28 28 27 27 26 24 22 21 20 21 21 20 20 20 20 19 18 16 15 12 11 10 11 10 8 6 5 6 9 10 12 14
18 17 16 16 16 16 16 17 17 16 15 14 12 11 11 11 12 12 12 12 12 13 15 16 17 18 18 18 17 16 17 19 21 22 22 22 22 21 21 22 24 25 26 27 26 26 27 28 29 29 29 28 28 28 27 27 27 26 24 21 20 20 20 20 20 21 21 21 20 19 18 16 13 11 11 11 10 8 6 5 5 7 8 10 12
18 18 18 18 18 19 20 21 21 21 20 19 18 18 17 15 14 14 13 13 13 14 14 15 15 15 14 12 12 12 14 17 19 20 21 21 21 21 21 22 23 24 24 25 25 25 25 26 27 27 27 27 27 27 27 26 26 25 24 22 20 20 19 19 20 21 22 22 21 20 18 16 14 12 11 11 10 9 7 5 4 5 7 8 9
18 18 18 18 18 18 20 20 20 19 19 19 20 19 18 18 17 16 16 16 15 15 15 16 16 15 13 11 9 8 9 12 14 16 18 19 20 20 21 22 23 23 23 24 24 24 24 25 26 26 26 27 27 26 26 25 25 24 24 22 21 19 19 18 19 21 23 23 22 20 19 17 15 13 11 10 11 10 7 5 4 5 6 6 7
17 16 17 17 17 17 17 17 17 17 17 17 17 16 16 15 15 14 14 15 14 15 15 16 16 16 15 14 12 10 9 10 11 13 15 16 17 18 19 20 21 21 22 23 23 23 23 24 24 25 25 25 25 25 25 24 23 23 23 22 21 20 18 18 19 21 23 25 24 21 18 17 16 14 12 11 11 10 8 6 5 5 5 6 6
16 14 14 14 14 14 14 14 14 14 14 13 13 12 12 12 12 11 11 11 12 12 13 13 14 14 15 14 14 13 13 12 12 13 14 15 16 17 17 17 18 18 19 20 21 21 22 23 24 24 23 23 23 23 23 22 21 21 22 22 21 20 19 18 20 22 23 25 25 22 19 17 17 15 13 12 12 11 9 7 6 5 5 5 5
15 13 11 10 10 10 10 10 10 10 9 9 9 9 9 9 9 8 8 8 9 10 11 11 12 13 13 14 14 14 14 14 15 15 16 17 17 18 17 17 17 17 17 18 19 19 20 21 22 22 22 21 21 21 21 20 19 19 20 20 21 21 19 18 18 20 21 24 25 23 19 16 17 17 15 13 13 12 10 8 7 6 5 5 4
12 11 10 8 7 7 6 6 5 5 5 5 6 6 6 6 6 6 6 6 6 7 8 9 10 11 12 13 13 13 14 15 16 17 18 18 18 19 19 19 19 19 18 18 17 17 18 19 19 19 19 19 19 19 19 19 18 17 17 18 18 18 17 16 17 18 19 22 24 24 19 16 16 17 16 14 13 13 11 10 9 8 6 5 5
10 9 8 7 6 5 4 3 3 3 3 3 3 4 4 4 4 4 4 4 4 5 5 6 7 8 9 10 10 10 11 13 14 15 16 17 17 18 19 19 20 20 20 19 17 16 16 16 16 16 16 17 17 17 18 17 17 16 16 15 16 16 15 15 16 18 17 19 23 24 21 17 16 17 17 15 14 14 13 11 11 10 7 6 5
9 9 9 8 7 6 6 6 6 6 6 6 6 6 6 6 6 4 3 1 2 2 2 2 3 4 5 6 7 7 8 9 10 12 13 14 17 19 19 20 20 20 20 20 19 17 15 14 13 13 14 14 15 15 16 16 16 15 15 14 14 14 13 14 16 17 17 17 20 23 23 19 16 17 18 17 16 15 14 13 12 11 9 7 6
8 9 9 9 9 9 9 9 9 10 10 10 10 11 11 11 11 9 7 5 3 2 2 1 1 1 1 2 3 4 5 7 8 8 9 11 15 18 19 20 21 21 20 20 19 18 16 15 13 12 11 11 12 13 14 14 14 14 14 13 13 13 12 13 14 15 15 16 19 22 24 21 18 17 18 18 16 16 15 14 13 13 11 8 7
8 9 10 12 12 13 13 13 14 15 14 14 14 15 16 16 16 15 13 10 8 6 5 4 4 4 4 3 3 4 4 5 6 6 7 8 11 14 16 17 19 21 21 21 20 19 17 16 14 13 11 10 10 10 11 12 12 12 12 12 11 11 11 12 13 13 14 16 18 21 24 23 20 18 19 18 17 17 17 16 15 14 13 10 8
10 11 13 14 15 16 17 17 17 18 18 18 18 19 19 19 20 20 19 17 14 12 9 7 6 6 7 7 7 7 7 6 6 6 6 8 9 11 12 14 16 18 20 21 21 20 19 17 16 14 12 11 10 9 9 9 10 10 11 10 10 10 10 10 11 11 13 15 18 20 23 23 21 20 20 19 19 18 18 17 16 15 14 12 9
Wind_Direction
208 211 214 218 223 227 232 238 244 247 251 257 256 251 249 250 251 247 241 238 235 232 231 231 235 237 236 240 251 280 234 209 206 211 217 217 204 201 202 213 269 57 66 49 44 30 14 22 24 14 10 9 9 6 3 1 357 354 353 350 347 341 311 280 260 287 307 320 329 335 343 343 340 342 342 338 337 336 334 334 334 333 333 332 331
208 212 214 219 225 228 233 238 244 248 250 255 256 251 250 250 250 246 242 240 236 233 232 232 235 236 234 235 237 240 239 220 217 222 226 229 226 223 228 234 248 262 261 315 8 5 343 354 358 351 356 3 5 2 358 356 353 348 348 346 340 338 323 295 283 284 303 317 328 335 342 343 338 341 343 338 336 336 334 333 335 334 333 333 331
210 213 216 221 226 230 234 237 243 249 252 255 255 252 250 249 249 249 245 241 236 233 233 234 235 234 230 231 232 232 236 227 223 227 232 238 241 240 241 241 248 260 258 264 296 315 309 319 327 332 342 356 359 357 354 350 349 346 344 343 336 333 331 309 296 287 296 310 322 331 337 339 337 339 343 339 335 335 333 332 333 333 332 331 329
213 216 220 224 228 232 235 238 242 248 252 255 254 253 251 250 251 250 246 242 237 233 232 232 232 230 228 229 233 236 239 234 230 231 236 242 248 250 248 244 245 255 259 264 281 294 296 298 309 319 323 329 338 341 343 343 343 343 342 341 335 331 333 326 308 300 295 302 315 327 333 335 335 339 342 339 335 334 333 332 331 331 330 330 330
217 220 223 226 230 233 237 240 243 248 251 254 255 254 254 253 254 251 246 242 238 233 230 229 229 230 230 233 236 239 242 241 238 237 240 245 251 256 252 245 246 251 258 267 277 286 289 290 303 313 309 307 318 323 327 333 337 340 339 339 337 334 336 337 324 315 305 301 311 325 333 335 335 340 344 339 334 333 332 332 331 330 329 331 331
219 222 225 228 231 234 238 241 244 248 251 254 256 257 256 256 256 252 248 244 238 233 230 230 231 232 234 235 237 240 241 242 244 243 245 248 251 255 253 249 251 253 258 265 271 280 286 290 300 306 298 301 309 311 313 322 333 337 338 339 338 336 338 338 332 325 318 313 315 322 331 335 335 337 342 341 334 331 330 329 329 331 331 331 332
221 224 227 230 234 237 238 241 244 248 251 254 257 259 258 258 258 256 251 244 236 233 231 230 232 234 235 235 237 240 241 242 246 246 247 249 251 252 253 254 257 258 261 264 265 274 284 293 305 306 297 300 306 306 305 314 329 335 336 337 337 334 334 335 332 329 326 324 324 324 327 332 333 333 337 339 334 331 330 325 324 329 331 330 328
223 226 229 232 236 238 240 242 245 248 252 255 257 259 259 260 260 256 251 244 236 233 232 231 231 231 232 235 236 238 239 241 245 248 249 251 250 251 253 255 259 260 260 262 263 268 277 287 302 308 307 305 301 298 300 311 326 333 333 335 336 331 329 331 331 331 329 326 326 326 326 328 331 332 334 336 333 329 329 325 317 321 327 327 326
224 227 230 233 236 239 241 243 245 248 251 254 255 257 259 260 259 255 250 244 237 232 231 231 230 229 229 232 234 236 238 241 246 250 253 253 252 252 253 255 257 259 257 257 260 263 269 275 282 294 305 305 295 290 294 308 322 327 330 335 338 334 331 330 329 328 327 324 324 326 325 324 328 330 329 331 329 324 326 324 314 313 320 322 323
226 228 231 235 237 240 243 245 247 249 251 253 255 257 258 259 257 253 249 243 235 229 228 230 229 230 231 232 234 236 238 241 246 253 256 256 255 253 254 256 256 255 255 254 256 261 266 268 272 281 290 291 286 285 290 303 314 321 328 336 338 335 330 326 326 325 322 318 320 322 320 318 324 326 323 325 327 324 324 323 316 316 319 318 320
225 228 233 237 239 241 244 247 249 250 252 253 254 255 256 257 256 252 247 241 233 227 227 229 230 232 233 233 236 238 239 241 245 253 257 255 254 254 255 257 256 254 255 255 256 260 264 266 270 276 281 282 283 284 287 294 307 316 324 335 337 334 328 322 321 322 319 315 317 319 315 314 320 324 323 325 327 324 323 322 319 318 319 316 315
225 229 233 237 240 242 245 247 249 251 253 254 254 254 255 254 253 249 245 240 233 227 227 230 231 232 232 233 236 238 240 241 244 251 254 252 253 255 256 257 257 256 256 257 258 260 262 266 271 275 280 283 285 285 283 287 301 308 312 329 337 337 334 328 322 321 321 315 313 315 316 315 319 324 327 327 325 323 323 322 320 317 314 313 307
225 229 233 237 240 242 245 247 249 252 254 254 254 253 252 251 250 248 244 239 234 228 227 229 230 231 232 232 236 238 239 240 243 248 252 252 253 255 258 261 262 262 261 259 260 259 261 266 270 273 279 284 287 286 282 284 295 300 302 317 327 332 335 331 324 322 325 321 313 315 322 323 319 323 329 329 325 323 322 321 321 319 311 307 305
224 229 232 236 239 243 245 247 250 252 254 253 253 251 250 250 249 247 242 237 232 228 227 228 229 230 232 233 236 238 239 240 242 245 250 253 254 255 259 263 264 265 266 264 262 261 262 266 270 274 280 284 286 287 283 282 290 294 297 308 317 324 330 329 323 320 322 324 318 320 329 329 322 324 330 330 326 323 322 322 323 320 314 313 314
224 228 231 234 238 240 243 245 248 250 251 251 250 249 249 249 247 245 241 236 233 231 229 229 229 230 232 234 236 237 239 240 241 244 248 252 255 255 257 262 264 266 267 266 264 263 262 265 271 278 283 285 285 286 281 280 288 293 297 305 312 318 326 329 326 320 321 324 323 325 331 331 326 326 330 330 327 324 323 323 324 324 320 319 321
224 227 230 233 236 238 241 243 245 247 247 247 247 248 248 248 246 243 238 232 231 233 232 230 230 231 233 234 236 238 240 240 240 243 247 251 253 254 256 260 263 265 267 267 265 262 261 265 273 280 284 285 285 282 277 279 288 294 298 305 311 315 323 330 328 323 324 324 325 329 332 331 329 329 332 333 330 328 328 327 329 330 322 317 320
226 228 231 234 237 239 240 241 243 246 245 244 246 248 248 248 245 240 233 229 230 233 232 229 230 233 233 233 237 239 240 241 241 243 246 249 252 253 255 259 262 264 267 268 265 262 262 266 273 279 283 286 284 277 271 277 288 294 299 306 311 313 321 329 328 326 327 325 327 331 333 333 332 333 337 339 334 334 336 333 333 332 323 316 322
227 230 233 236 238 239 240 242 244 246 245 244 247 249 249 248 244 238 234 232 231 230 231 229 230 234 234 235 239 242 243 243 243 244 246 249 252 253 255 258 261 263 266 268 267 265 265 267 272 278 285 286 280 271 269 275 285 292 299 306 309 312 320 327 326 326 327 325 328 331 332 335 336 337 341 343 340 340 339 336 335 332 323 318 322
230 232 236 239 240 242 244 245 246 244 244 246 249 249 248 246 243 239 236 232 227 227 230 230 231 235 235 236 240 243 245 245 244 245 246 247 250 251 253 256 259 262 267 270 271 270 269 270 272 278 285 285 274 268 270 275 282 289 296 302 305 310 318 322 321 323 325 324 327 330 331 335 338 340 344 346 345 344 339 337 338 333 322 316 320
235 237 240 240 243 247 247 245 244 244 245 249 250 249 248 246 243 239 233 225 221 225 232 233 233 236 237 237 239 242 245 246 244 245 246 247 249 250 250 253 258 263 269 273 275 274 273 272 274 278 284 283 275 269 269 273 280 286 290 295 300 307 314 315 315 319 320 319 323 327 329 333 338 343 345 347 348 347 341 339 339 335 326 317 315
239 241 242 240 240 244 244 243 245 246 248 249 248 248 247 245 242 235 226 221 220 223 229 231 232 235 237 238 239 242 245 247 246 245 246 247 249 249 250 254 260 265 270 274 275 275 276 277 279 281 283 283 278 272 270 272 277 281 286 291 298 305 307 307 310 315 314 315 320 325 329 333 339 344 347 347 347 347 344 342 341 340 334 321 312
240 241 243 242 241 243 244 246 248 248 248 247 246 247 246 243 240 231 221 222 224 222 225 229 230 233 236 237 240 243 244 247 248 246 246 248 249 250 253 258 262 264 266 269 271 274 279 282 283 283 282 281 280 276 273 275 276 280 286 293 298 301 300 300 306 311 311 313 317 322 329 336 340 344 346 346 345 344 344 343 343 344 343 334 323
242 243 244 245 247 247 248 249 249 247 247 246 244 244 242 238 233 223 214 221 226 223 224 227 228 231 234 237 241 243 244 245 247 247 247 249 250 252 256 259 260 260 261 266 271 275 280 282 282 281 278 278 279 278 276 276 276 280 288 293 295 295 293 294 301 307 308 310 314 320 329 337 340 343 344 343 342 342 342 343 345 348 349 346 341
243 243 245 247 249 251 251 251 250 249 247 245 241 238 235 230 223 214 210 220 225 224 223 225 226 229 233 237 241 244 244 245 247 249 250 250 250 252 255 257 258 258 259 265 271 275 278 279 280 279 275 275 278 278 276 275 276 281 289 292 291 289 287 288 296 303 304 305 312 319 328 336 339 340 341 340 339 339 340 343 346 349 352 351 353
241 243 247 250 252 254 253 252 252 250 246 242 237 233 228 222 214 208 209 217 222 222 222 224 226 228 233 239 244 247 247 246 248 250 251 252 252 253 254 256 257 258 260 265 270 274 275 275 274 272 270 271 274 275 275 275 277 283 289 291 288 284 281 283 292 299 299 301 309 317 325 333 337 337 338 338 338 340 342 344 346 352 357 357 358
243 248 251 254 255 255 254 252 249 247 244 241 237 233 228 222 215 211 213 217 220 222 222 224 226 230 235 242 247 249 249 249 251 252 252 253 254 255 255 256 256 257 260 264 267 270 271 270 269 269 268 269 271 273 275 277 279 283 288 291 289 282 277 279 287 294 295 297 306 315 321 328 334 336 337 338 341 344 347 347 348 354 360 1 1
250 252 253 255 256 255 254 251 246 242 239 235 233 231 228 223 218 216 217 217 218 220 222 224 227 231 237 244 248 250 252 252 253 254 252 252 255 257 256 257 256 255 257 261 265 268 270 271 270 269 268 268 269 271 274 276 278 282 287 291 289 281 274 275 283 289 291 293 301 312 319 324 331 335 337 340 344 347 350 352 352 355 359 3 1
247 248 250 252 254 254 253 249 243 239 236 232 229 227 225 222 222 225 227 225 223 223 224 227 232 236 241 246 248 248 250 254 257 260 260 258 258 258 257 258 258 257 258 263 266 268 269 268 267 267 266 266 266 268 270 272 275 280 285 290 290 282 273 271 277 284 287 290 297 308 317 321 328 334 336 340 345 349 352 355 356 357 359 2 0
231 236 241 244 248 251 250 246 243 238 234 232 231 231 230 230 232 236 239 239 237 237 237 240 245 248 250 251 250 248 251 260 269 274 272 266 262 259 259 261 263 265 267 269 266 264 264 263 263 263 263 264 265 266 268 271 273 277 282 287 291 284 272 267 273 281 284 286 291 304 314 319 325 332 335 339 345 349 353 356 357 359 1 360 357
214 223 231 235 243 248 247 244 242 239 237 234 232 233 236 239 241 244 246 247 247 248 250 253 258 260 259 260 260 258 261 271 279 280 276 272 268 266 266 267 270 273 275 270 263 259 259 259 259 260 260 261 262 264 267 269 272 276 280 283 284 280 271 265 270 277 280 281 285 298 311 316 321 328 333 337 343 347 351 355 358 1 2 358 351
220 225 233 243 251 252 250 248 243 240 239 238 236 236 238 241 244 246 248 250 250 251 253 255 258 260 262 265 267 267 268 272 273 274 275 275 275 274 274 274 273 273 272 266 260 258 256 254 256 258 259 259 261 263 265 266 269 275 279 279 279 276 269 265 268 271 274 277 281 291 304 312 317 323 328 334 340 344 348 352 357 1 2 357 349
272 264 256 258 262 260 257 254 250 246 244 243 242 243 244 247 250 251 252 254 256 258 259 259 259 261 263 265 266 268 270 270 271 272 273 274 275 276 277 277 277 274 267 260 256 257 256 254 255 258 258 259 263 265 266 266 268 272 275 275 274 274 272 271 269 266 267 272 277 284 297 307 312 316 320 328 336 342 346 349 355 1 -0 356 352
312 314 307 298 291 280 268 261 258 255 253 251 251 251 251 253 257 261 263 264 265 265 265 265 265 265 266 268 270 272 276 277 278 277 276 276 276 276 275 276 275 270 262 254 252 255 257 255 257 259 259 260 264 266 266 267 270 272 273 272 272 273 276 275 267 257 257 266 272 277 288 301 307 309 313 322 332 341 345 346 351 359 359 355 351
327 343 351 344 326 302 284 275 270 266 264 262 261 259 258 260 262 266 270 274 276 275 275 274 273 272 274 276 277 279 282 284 283 282 282 282 280 277 275 274 269 263 259 254 252 254 256 256 258 261 261 262 264 266 266 268 270 271 271 273 272 271 273 272 260 250 251 259 265 269 277 292 301 303 305 314 327 338 342 343 348 356 359 354 347
12 15 12 3 352 340 325 310 297 287 280 276 271 269 269 269 268 269 271 275 278 282 284 284 282 282 285 286 285 286 289 291 289 287 286 285 283 278 271 265 260 256 254 252 252 254 255 256 258 261 263 264 266 266 266 267 269 270 272 274 273 270 270 267 257 248 248 253 258 262 268 281 292 297 299 305 320 334 340 343 346 352 356 354 347
42 30 18 6 356 348 336 325 314 303 296 290 285 281 278 275 274 274 274 275 277 283 287 290 291 290 287 287 289 292 292 291 290 289 288 287 283 273 262 257 256 255 254 255 256 256 257 259 260 263 265 266 267 268 268 268 268 270 274 275 272 269 268 267 258 248 245 248 252 255 260 269 281 290 290 292 308 326 333 337 341 347 354 355 350
45 42 37 27 17 8 353 336 321 311 305 301 294 288 284 282 283 284 285 285 286 286 288 292 297 296 292 292 297 299 295 292 293 292 288 284 277 267 259 258 257 257 259 262 262 261 262 264 265 265 266 268 268 269 269 268 268 271 274 275 272 269 269 269 262 250 244 245 247 250 254 260 271 281 282 279 293 314 326 331 335 341 352 355 350
46 46 44 40 37 35 30 21 11 359 352 343 320 304 297 297 298 298 297 297 297 296 296 300 302 301 301 305 308 305 300 297 294 290 285 280 272 265 263 262 260 260 264 268 268 265 266 269 270 269 269 270 270 270 270 269 268 270 273 274 272 270 270 269 262 250 242 242 245 247 249 252 260 272 276 272 279 300 316 327 333 336 347 356 352
48 48 47 45 45 45 44 44 43 41 40 36 21 1 347 341 337 332 323 315 309 306 307 309 308 309 314 317 314 308 301 295 291 287 285 281 276 271 268 266 265 266 269 272 271 269 269 272 274 273 273 273 273 273 272 270 268 269 272 272 270 269 268 266 259 247 239 238 241 243 243 246 252 263 270 267 269 286 303 314 327 334 343 353 351
52 52 51 51 53 54 55 56 56 54 52 49 43 34 26 16 9 2 355 347 339 333 329 327 324 325 327 325 317 307 297 291 290 291 290 287 285 281 277 273 273 274 276 278 277 274 274 277 278 278 277 277 277 276 275 273 269 268 269 269 267 266 266 265 260 250 239 236 238 240 239 241 245 252 261 262 261 271 289 299 312 326 336 346 347
56 58 59 61 63 63 62 62 61 61 59 57 54 51 48 43 37 32 27 22 14 7 2 357 351 349 346 338 326 310 295 290 292 295 294 292 291 290 287 285 284 284 285 286 286 283 282 283 284 283 282 282 281 279 276 274 270 266 265 265 265 265 264 263 259 251 240 234 234 235 236 238 240 244 254 259 254 257 273 286 292 309 322 335 343
59 62 65 67 67 65 63 63 63 62 60 58 57 56 54 51 49 48 47 45 41 35 30 25 21 19 14 5 353 334 314 305 304 303 303 303 301 299 298 297 296 295 295 296 294 292 290 289 288 288 287 285 284 281 278 274 271 266 263 263 263 263 263 262 258 250 241 233 230 231 232 234 237 240 248 252 249 249 259 268 270 288 307 320 335
62 65 67 68 67 66 65 65 63 61 60 59 58 56 52 49 48 49 49 50 49 46 41 36 32 31 28 25 22 19 9 352 336 326 323 321 319 316 315 313 311 309 308 305 302 298 295 293 292 292 291 289 287 284 280 277 274 268 264 262 261 261 262 263 258 249 240 233 228 226 227 230 234 236 240 244 243 243 246 250 249 263 292 309 325
59 62 65 67 68 67 66 64 62 61 60 58 55 52 47 43 42 43 45 48 49 48 45 42 38 35 33 30 29 29 27 20 9 359 352 347 342 338 334 329 325 321 316 314 311 307 302 298 296 295 295 293 291 287 283 279 275 269 265 262 260 258 260 262 257 249 242 235 227 222 221 226 230 231 233 237 238 236 238 240 238 244 269 292 309
53 53 56 61 66 68 68 68 65 63 59 53 48 44 40 37 37 39 42 44 44 43 44 43 42 40 38 35 32 31 30 28 23 17 11 5 0 356 352 346 339 331 324 321 319 314 308 303 299 298 298 298 295 292 287 282 277 271 267 263 259 258 263 267 263 253 245 238 230 222 218 223 228 229 229 232 233 231 230 232 230 231 249 274 287
43 43 42 44 48 54 61 66 64 59 52 45 36 29 27 26 30 37 41 42 39 37 38 40 42 42 42 42 40 36 32 27 22 16 11 7 3 360 357 353 350 344 338 333 326 318 314 309 303 300 300 301 300 297 292 286 280 274 269 264 260 261 267 271 263 250 242 238 232 224 218 221 227 229 227 227 229 228 225 223 223 222 230 256 272
28 25 23 21 19 17 15 11 1 350 347 347 345 347 349 349 355 12 29 34 31 27 29 37 41 41 41 43 42 37 29 21 15 10 8 6 4 2 357 353 351 348 345 342 336 327 320 315 310 306 305 304 303 300 296 292 286 279 273 266 260 261 267 267 255 243 238 237 233 226 220 220 225 227 224 221 222 223 220 217 219 219 220 239 257
11 4 356 350 346 338 327 319 313 305 300 297 293 292 295 297 296 295 300 337 12 12 11 29 42 39 37 39 36 27 17 10 6 8 11 12 12 9 4 -0 357 352 348 346 344 338 332 326 322 318 314 311 308 304 298 294 291 286 280 270 261 259 263 261 249 239 234 233 230 225 222 222 225 226 222 220 221 221 218 215 215 214 215 227 242
358 350 341 333 326 319 311 305 301 297 294 289 284 283 284 284 282 279 275 268 265 273 279 275 260 276 338 7 9 4 -0 356 355 360 6 9 8 6 4 3 2 360 355 352 350 346 341 337 332 328 323 317 312 308 302 298 295 291 287 279 268 261 260 256 247 237 231 228 226 222 220 221 225 225 222 220 220 220 217 214 213 210 209 215 228
336 331 326 321 317 312 306 300 297 296 296 293 289 287 286 284 283 282 278 270 261 257 256 255 253 252 259 271 286 306 323 334 339 342 343 345 349 353 356 359 0 0 359 357 355 352 348 343 337 333 328 320 314 312 309 305 301 296 291 285 275 266 260 254 246 238 230 225 223 221 220 220 221 222 221 220 218 216 215 213 211 209 208 209 215
319 315 313 312 311 310 308 306 303 301 301 300 297 295 293 289 287 287 284 278 270 263 255 252 253 254 259 267 273 279 286 297 308 318 323 326 333 340 346 350 354 356 357 356 355 354 354 350 344 338 331 324 317 314 312 309 304 299 293 286 277 268 258 249 242 237 230 224 222 222 222 221 220 220 219 218 216 214 213 212 210 209 208 207 208